Temp_Advection
nan nan nan nan nan nan nan nan nan nan nan nan nan nan nan nan nan nan nan nan nan nan nan nan nan nan nan nan nan nan nan nan nan nan nan nan nan nan nan nan nan nan nan nan nan nan nan nan nan
nan 0 0 -0 -0 0 -0 -0 -0 0 0 0 -0 -0 -0 -0 -0 -0 0 0 -0 0 0 -0 0 0 0 0 0 0 0 0 0 0 0 0 0 -0 -0 -0 0 0 0 0 0 -0 -0 -0 nan
nan 0 -0 -0 0 -0 0 -0 0 1 0 -0 -0 -0 -0 -0 -0 -0 -0 -0 0 -0 -0 0 0 -0 0 0 0 0 0 0 0 0 0 0 0 0 -0 -0 -0 0 -0 0 -0 -0 -0 -0 nan
nan 0 0 -0 -0 0 0 0 0 0 0 -0 -0 -0 -0 0 -0 -0 0 -0 0 0 -0 0 0 -0 -0 0 0 0 0 0 0 0 -0 -0 0 0 0 -0 -0 0 -0 0 0 -0 -0 -0 nan
nan -0 -0 0 0 -0 0 0 -0 -0 0 -0 -0 -0 -0 0 -0 0 0 -0 -0 0 -0 0 0 0 -0 -0 -0 0 0 0 0 -0 -0 -0 0 0 0 -0 -0 -0 0 0 0 0 -0 -0 nan
nan 0 -0 0 0 0 0 0 -0 0 -0 -0 -0 -0 -0 0 -0 -0 -0 -0 -0 0 -0 -0 0 0 0 0 -0 -0 0 0 0 -0 -0 0 0 -0 -0 -0 -0 -0 0 0 0 0 -0 -0 nan
nan -0 -0 -0 0 0 0 -0 -0 -0 -0 -0 -0 -0 -0 0 -0 -0 -0 -0 -0 0 -0 -0 -0 -0 0 -0 -0 0 -0 -0 -0 0 0 0 -0 -0 0 0 -0 -0 0 0 0 -0 0 -0 nan
nan 0 -0 -0 -0 0 0 -0 -0 -0 -0 0 -0 -0 -0 -0 -0 -0 -0 0 -0 -0 -0 0 0 0 -0 -0 -0 -0 0 0 0 -0 -0 -0 -0 0 0 0 -0 0 0 -0 0 0 0 -0 nan
nan -0 -0 -0 0 0 0 -0 -0 -0 -0 -0 -0 0 0 -0 -0 -0 -0 -0 0 -0 -1 -0 0 0 0 0 -0 -0 -0 -0 -0 -0 -0 -0 -0 0 0 0 0 0 0 0 0 0 0 0 nan
nan 0 0 -0 0 0 0 -0 -0 -0 -0 -0 -0 0 -0 -0 0 -0 -0 -0 -0 -0 -0 -0 -1 -0 0 0 0 -0 -0 0 0 -0 -0 -0 -0 0 0 0 0 0 -0 0 0 0 0 -0 nan
nan -0 0 -0 0 0 -0 -0 -0 -0 -0 0 -0 -0 -0 -0 -0 -0 -0 -0 -0 -0 -0 -0 -0 -1 -1 -0 0 -0 0 -0 0 0 -0 -0 -0 -0 -0 0 0 0 -0 -0 0 0 -0 -0 nan
nan 0 -0 -0 -0 -0 -0 -0 -0 -0 -0 0 -0 -0 -0 -0 -0 -0 -0 -0 -0 -0 -0 -0 -0 -1 -1 -1 -0 -0 0 0 0 -0 -0 -0 -0 0 0 0 0 -0 -0 0 0 -0 -0 0 nan
nan 0 -0 -0 -0 -0 -0 0 -0 -1 -0 0 0 -0 -0 0 0 0 -0 -0 -0 -0 -0 -0 -0 -0 -0 -1 -1 -1 -0 -0 0 0 0 0 0 -0 -0 0 0 -0 -0 0 0 -0 -0 0 nan
nan -0 -0 0 0 0 0 -0 -0 -0 0 0 -0 -0 0 0 0 -0 0 -0 -0 -0 -0 -0 -0 -0 -0 -0 -0 -1 -1 -1 -0 0 0 -0 -0 -0 0 0 -0 -0 0 0 0 -0 0 0 nan
nan -0 0 0 0 0 0 0 -0 -0 0 -0 -0 0 0 -0 -0 -0 -0 -0 -0 -0 -1 -1 -0 -0 0 -0 -0 -0 -0 -1 -1 -1 -0 0 0 -0 -0 -0 -0 0 0 0 0 0 0 0 nan
nan -0 0 -0 -0 -0 0 -0 -0 0 0 -0 -0 0 0 -0 -0 -0 -0 -0 -0 -1 -0 -1 -1 -1 -0 0 -0 -0 -0 -0 -0 -0 -1 -0 -0 -0 -0 -0 -0 0 0 0 0 -0 0 0 nan
nan -0 -0 -0 0 -0 -0 -0 -0 0 0 -0 -0 -0 -0 0 -0 -0 -0 -0 -0 -0 -1 -1 -1 -1 -1 -1 -0 -0 0 -0 -1 -0 0 -0 -1 -1 -0 0 0 0 -0 0 0 0 0 0 nan
nan 0 -0 -0 0 0 0 -0 -1 -1 -0 -0 0 -0 -0 -0 -0 -0 -0 -0 -0 -0 -0 -1 -1 -1 -1 -1 -1 -0 -0 -0 -0 -1 -0 -0 -0 -1 -1 0 0 -0 -0 0 0 0 0 0 nan
nan -0 -0 0 0 0 0 -0 -1 -1 -1 0 0 -0 -0 -0 -0 -0 -0 -1 -0 -0 -0 -0 -1 -0 -0 -1 -1 -0 -0 -1 -1 -0 -0 -0 -1 -1 -1 -0 -1 -0 0 1 0 -0 -0 0 nan
nan -0 -0 -0 -0 -0 0 -1 -0 -0 -0 0 0 -0 -0 -0 -0 -0 -0 -0 -0 -0 -0 -0 -1 -1 -0 -0 -0 -0 -0 -0 -1 -1 -1 -0 0 -1 -1 -1 -0 1 1 1 0 -0 -0 -0 nan
nan 0 0 0 -1 -0 0 -1 -0 -0 0 -0 -1 -0 -0 -0 -1 -1 -1 -0 -0 -0 -0 -0 -0 -0 -1 -1 -0 0 0 -0 -0 -1 -1 -1 -1 -0 -0 -0 0 0 0 0 -0 -0 0 0 nan
nan 0 -0 0 -0 -0 -0 -0 -1 0 0 -0 -0 -0 -0 -0 -0 -0 -0 -0 0 -0 -1 -0 0 -0 -0 -1 -1 -0 0 -0 0 -0 -1 -1 -1 -0 0 -0 -1 -0 0 0 0 0 1 0 nan
nan -0 -0 0 0 0 -0 0 -1 0 0 0 -0 -0 0 -0 0 0 0 -1 -0 -0 -1 -1 -0 -0 -0 -0 -1 -1 -0 -0 0 -0 -0 -0 -1 -0 -0 -0 -1 -0 1 0 -0 0 1 0 nan
nan -0 -0 -0 0 0 -0 0 -0 -0 0 -0 0 0 0 0 -0 0 0 -0 -0 0 0 -0 -0 -0 -0 -1 -0 -1 -0 -0 -0 -0 -1 -0 -0 -0 -0 0 -0 0 1 0 0 0 0 0 nan
nan -0 -0 -0 -0 -0 0 -0 -1 -0 0 0 0 0 0 0 -0 -0 -0 -0 -0 -0 0 0 -0 -0 -0 -0 -0 -1 -1 -0 -0 -0 -0 -0 -0 -0 -0 -0 -0 0 -0 0 0 0 0 -0 nan
nan -0 -0 0 0 -0 -0 -0 -1 0 0 0 -0 0 0 0 -0 -0 -0 -0 -0 -0 -0 -0 -0 -0 -0 -0 -0 -0 -0 -0 -0 -0 -1 -0 0 0 -0 -1 -0 -0 -0 -0 -0 -0 0 0 nan
nan -0 -0 -0 -0 -0 -0 -1 -0 0 0 0 0 0 0 0 0 -0 -0 -0 0 0 -0 -0 -0 -0 -0 -0 -0 0 0 0 -1 -1 0 0 0 -0 -0 -1 -0 -0 -0 -0 0 0 -0 -0 nan
nan 0 -0 0 0 0 -0 -0 -0 0 -0 0 0 -0 0 0 0 0 -0 -0 -0 -0 -0 -0 -0 -0 -0 0 0 -0 -0 -0 -0 0 0 0 0 -0 -0 0 0 0 -0 -0 -0 -0 -0 -0 nan
nan -0 -0 -0 -0 -0 0 -0 -0 -0 -0 -0 -0 -0 0 0 0 -0 0 0 0 0 0 0 0 0 0 0 0 -0 -0 0 0 -0 0 0 -0 -0 -0 -0 -0 -0 -0 -0 -0 -0 -0 -0 nan
nan nan nan nan nan nan nan nan nan nan nan nan nan nan nan nan nan nan nan nan nan nan nan nan nan nan nan nan nan nan nan nan nan nan nan nan nan nan nan nan nan nan nan nan nan nan nan nan nan
Wind_Speed
18 15 11 4 4 5 2 1 3 3 4 5 9 7 7 8 4 4 5 7 5 5 2 0 1 4 6 6 5 4 4 3 3 3 2 3 4 3 3 1 1 3 5 6 6 6 7 0 4
16 14 6 1 4 3 3 3 6 5 4 7 8 5 5 3 8 3 3 5 2 4 2 0 2 6 5 6 6 5 5 4 4 4 4 4 4 4 3 3 2 4 4 4 5 7 5 2 3
13 4 1 4 3 3 4 2 6 8 10 9 3 7 4 3 5 4 7 8 1 1 2 1 5 4 6 6 6 6 6 6 6 6 6 6 5 5 4 4 4 5 5 7 6 8 5 4 5
7 4 1 4 2 7 6 3 7 5 6 7 6 6 6 4 1 6 8 8 0 0 2 4 2 4 6 8 9 8 8 7 8 7 7 7 6 6 5 5 5 7 8 8 7 7 5 4 5
5 1 3 3 3 3 4 8 10 4 4 5 6 3 5 2 4 6 7 8 6 1 2 5 3 3 4 8 9 10 10 10 10 10 10 9 8 8 9 7 7 8 10 8 10 9 7 6 7
1 2 3 3 5 4 4 8 6 5 4 4 5 3 3 3 5 8 9 8 6 1 3 5 5 6 5 6 8 10 11 12 12 11 11 11 10 10 10 10 9 9 10 11 11 12 9 8 9
3 3 4 4 7 3 2 4 5 4 6 5 3 2 8 6 8 10 11 10 8 4 2 7 9 9 8 9 10 11 11 12 13 14 14 14 13 13 12 12 12 12 11 12 13 14 13 10 11
2 3 1 3 5 2 3 3 4 8 5 3 2 3 4 7 9 13 13 12 10 11 8 6 8 10 11 11 13 12 13 13 14 15 16 16 16 15 15 15 14 14 14 14 15 15 17 13 13
2 4 3 4 3 3 4 3 4 4 4 3 2 4 5 2 8 13 14 11 9 9 13 14 11 10 13 15 17 17 15 15 16 17 18 18 19 18 18 18 17 16 16 16 17 17 17 18 15
5 4 2 3 2 4 5 5 6 4 7 3 6 6 9 9 13 17 16 15 13 11 11 14 18 16 15 15 16 20 20 18 18 18 17 20 20 20 20 19 17 14 14 17 18 19 20 21 19
3 4 5 5 9 8 3 2 3 1 3 5 6 10 11 15 16 13 15 16 17 17 17 18 20 22 22 20 19 18 21 23 21 21 19 18 17 17 19 18 18 15 17 18 18 20 23 24 22
5 9 7 4 5 4 1 7 5 8 9 8 8 11 13 10 13 14 16 18 20 19 19 19 19 21 22 23 23 23 23 22 26 25 24 23 21 21 19 16 18 20 22 22 23 22 24 24 24
5 3 6 5 3 1 5 7 7 12 14 13 12 9 7 7 14 15 12 8 8 13 14 17 18 20 22 22 24 24 27 26 25 29 28 30 27 24 23 22 23 24 23 24 23 22 25 25 25
5 8 8 4 3 2 2 4 7 2 3 2 4 5 9 13 14 9 6 10 15 20 22 21 21 21 19 23 25 27 26 28 29 28 30 29 31 32 29 30 29 31 28 25 23 22 23 25 25
7 4 1 3 2 0 5 2 7 8 6 2 4 9 11 14 8 4 10 15 21 24 24 23 21 20 22 22 23 25 24 26 30 31 28 31 30 30 32 31 31 28 30 29 27 25 22 23 24
3 3 2 1 1 1 3 7 4 8 6 8 11 11 6 5 5 8 13 17 22 24 24 23 24 23 21 23 26 27 29 26 28 28 30 30 32 34 31 33 33 30 32 32 28 26 25 26 26
4 0 2 1 3 0 1 6 6 5 23 18 8 2 4 1 6 13 18 24 25 22 26 28 29 28 27 25 23 25 27 28 30 31 28 31 31 35 36 35 36 35 33 31 31 26 24 23 22
1 1 2 2 2 2 3 11 16 25 17 13 4 5 2 5 11 18 23 24 22 22 22 22 22 23 26 26 24 22 24 28 28 29 31 29 31 34 36 34 35 36 34 31 30 25 22 21 17
3 2 2 3 2 3 5 9 18 18 17 8 6 3 3 8 13 19 21 19 19 19 21 22 24 22 21 23 23 23 21 22 23 24 27 29 31 32 35 38 39 40 38 33 25 18 17 16 16
5 3 3 3 2 5 8 14 15 15 9 12 8 3 4 11 18 19 20 19 22 22 22 26 25 24 19 19 21 20 20 23 25 25 25 29 33 33 31 35 39 37 38 34 28 22 21 21 23
4 4 2 2 6 4 6 7 2 0 6 10 9 3 6 12 15 19 19 19 21 24 23 27 27 27 23 20 20 19 18 23 25 26 27 30 29 29 37 37 37 34 36 35 31 25 21 22 20
2 2 2 4 5 2 5 5 5 5 6 5 6 2 9 12 13 15 17 18 20 24 22 24 26 27 25 21 19 17 17 22 24 24 25 27 28 28 31 37 40 38 33 27 27 23 20 22 20
2 1 1 2 2 4 3 2 7 4 5 4 1 3 8 10 12 14 17 17 17 22 19 20 23 25 24 20 18 16 15 16 17 16 16 18 18 22 29 25 35 40 32 30 25 24 22 19 17
3 3 1 2 2 2 5 4 5 5 5 4 3 4 7 9 11 14 15 17 14 17 17 16 20 22 24 16 16 15 13 13 11 12 20 9 10 4 6 13 5 13 35 32 28 20 15 16 16
2 4 3 3 1 5 3 2 9 4 3 6 4 3 6 10 10 11 14 14 11 14 17 16 18 16 21 17 16 13 13 9 9 14 10 3 6 7 9 8 13 16 7 5 6 8 11 14 18
4 5 4 4 2 4 4 6 6 5 8 5 0 3 6 8 6 8 10 10 11 12 14 15 13 14 13 13 14 13 14 14 11 9 11 10 12 9 8 8 6 4 8 5 5 9 11 11 14
2 0 3 2 1 3 3 7 8 6 4 5 4 4 5 3 5 6 7 9 8 10 11 10 10 11 13 14 15 17 17 19 20 17 15 18 15 11 4 9 8 5 5 1 1 1 4 6 8
2 2 3 2 2 5 6 6 6 5 7 5 7 11 7 3 3 4 3 4 6 8 7 8 7 7 7 9 11 13 14 15 14 13 14 15 13 12 9 9 8 6 4 3 3 3 4 5 6
2 2 4 2 4 4 4 6 5 9 8 9 12 11 10 8 6 2 2 3 4 5 5 6 5 6 7 8 9 10 12 12 13 14 15 14 14 12 11 12 12 11 10 9 9 9 10 11 12
5 7 6 4 4 4 2 7 4 7 10 12 8 12 13 13 10 7 6 5 3 2 2 3 5 6 7 8 9 10 12 13 14 15 14 14 14 13 12 12 12 12 12 12 12 12 12 13 14
Wind_Direction
129 117 115 98 64 66 276 352 93 42 46 46 49 56 112 59 38 137 162 341 344 352 65 134 267 206 204 206 215 209 199 204 227 220 239 284 274 277 309 323 169 153 129 135 146 153 165 27 160
131 113 76 33 86 79 281 60 80 66 91 68 63 14 49 63 55 82 148 333 44 19 350 11 282 213 219 206 209 214 217 216 228 252 259 269 277 300 292 282 209 192 179 152 170 167 212 252 184
125 98 92 111 115 150 126 48 115 67 56 36 69 65 63 53 43 44 10 2 146 32 304 242 244 263 233 231 228 220 226 232 237 247 250 257 261 276 287 280 236 212 202 191 186 192 227 223 189
118 136 150 92 154 341 120 121 111 91 60 53 36 73 83 69 17 21 7 13 327 150 247 276 260 279 266 246 240 239 238 240 242 245 240 245 255 263 263 270 241 229 217 212 203 207 230 221 202
101 145 66 108 101 133 74 61 47 96 100 61 29 65 94 48 34 5 360 12 40 193 238 259 278 323 292 256 252 253 248 248 248 247 254 260 259 258 252 256 239 232 223 223 224 222 235 227 210
180 127 78 173 130 130 48 47 31 83 80 54 62 77 108 110 5 357 342 355 24 64 262 260 287 314 283 264 270 269 259 252 249 249 254 258 257 260 259 251 242 233 226 225 229 221 231 235 219
114 90 187 110 139 78 80 43 37 359 53 36 38 66 129 58 3 338 335 335 335 352 256 271 273 276 294 291 266 265 268 263 259 254 253 253 254 257 255 252 249 242 232 231 228 228 225 239 230
75 99 343 58 156 104 18 68 6 39 44 35 13 61 149 357 336 316 309 316 323 321 305 278 261 262 267 273 280 282 270 261 263 261 258 257 257 256 255 254 253 248 244 240 238 236 231 234 237
37 62 40 19 69 135 72 66 25 350 317 326 278 303 333 19 302 305 315 314 305 315 315 303 285 276 264 259 266 263 268 278 274 266 262 259 259 260 258 257 255 255 251 246 243 238 231 229 237
61 77 87 31 84 80 82 58 354 3 328 294 283 278 269 275 299 313 324 328 320 303 298 299 297 285 273 270 264 263 266 265 274 274 267 264 263 263 264 260 248 250 252 248 247 238 234 228 233
56 113 145 45 72 76 62 358 345 52 302 73 337 313 298 301 311 325 330 331 328 322 309 298 293 291 286 276 270 263 262 262 264 266 266 262 262 263 259 253 242 247 252 253 248 240 233 231 233
96 57 81 110 61 64 2 315 302 235 237 295 317 298 306 333 339 330 318 313 316 315 311 310 308 304 299 292 278 271 263 258 249 257 261 258 258 258 265 249 250 250 253 258 260 249 243 237 237
90 109 81 109 86 310 284 266 253 263 264 259 274 294 338 329 318 317 325 321 308 305 306 299 296 294 292 293 290 282 274 265 259 252 253 247 248 246 247 243 245 248 248 253 250 250 243 240 238
118 121 129 121 138 242 275 274 344 220 147 174 231 306 311 325 327 318 296 305 305 305 303 302 299 294 290 286 286 288 282 274 266 263 257 256 252 252 245 244 247 249 243 245 249 250 246 244 241
112 97 106 190 154 197 320 266 220 200 171 258 282 310 308 328 321 355 328 315 314 314 307 303 303 297 284 276 271 275 280 282 272 267 264 259 254 255 245 246 245 246 242 246 249 252 249 244 240
81 59 55 276 172 291 19 276 306 157 193 268 282 294 322 45 40 352 332 319 313 307 307 306 306 301 294 289 280 272 265 270 271 270 271 264 258 253 250 251 246 242 240 240 246 248 246 246 242
16 182 171 232 233 84 111 277 247 248 306 293 290 318 94 187 326 330 323 317 314 312 309 308 305 297 298 293 293 283 273 265 263 262 264 268 264 257 255 251 247 247 241 240 242 237 238 240 246
130 21 358 117 260 294 253 267 273 286 289 288 256 125 83 322 329 323 320 315 314 318 315 321 322 312 287 291 294 293 283 271 273 268 262 264 264 261 255 254 247 245 243 241 237 227 227 234 243
114 89 10 89 308 317 245 269 281 274 275 236 141 116 347 330 324 321 326 328 332 335 338 339 334 335 315 288 297 301 298 292 291 284 270 270 269 264 259 251 247 243 241 236 220 224 233 247 249
56 73 356 323 33 346 290 285 283 276 245 168 141 102 340 326 326 326 326 336 344 339 341 345 345 341 331 322 298 294 296 292 296 293 286 278 272 270 258 256 249 243 234 227 220 231 241 249 248
53 108 57 238 328 290 315 294 232 318 143 135 101 80 343 342 338 331 328 346 347 347 349 350 347 340 335 319 309 297 301 292 296 298 288 285 275 267 262 255 246 240 232 234 236 233 236 251 257
121 45 28 5 40 289 57 277 295 212 213 131 99 44 343 340 337 337 339 347 347 343 343 349 346 343 339 325 325 305 303 299 298 296 305 301 282 267 259 253 257 236 230 225 230 244 245 246 252
147 80 6 20 345 36 309 69 270 138 234 186 117 347 329 332 331 337 348 346 346 341 346 349 345 346 346 340 333 323 305 300 288 285 300 317 303 283 274 274 263 249 222 233 249 234 232 240 248
34 26 321 315 316 300 233 147 269 194 195 173 207 299 315 328 335 338 342 339 350 340 337 348 347 352 357 358 353 356 339 331 315 332 295 311 302 303 322 295 279 216 210 214 228 223 228 245 260
87 60 4 340 313 231 187 42 247 225 192 178 203 286 321 332 334 338 331 329 347 345 352 351 343 350 343 344 348 349 334 329 329 323 312 343 346 299 288 1 10 251 341 155 207 251 265 267 268
200 142 151 234 253 269 9 239 258 192 172 159 126 323 339 347 341 324 328 327 347 347 1 3 1 357 5 1 14 20 20 13 12 328 8 30 47 42 359 334 314 15 309 347 277 266 266 274 278
345 206 167 95 52 31 246 283 285 160 164 173 198 247 292 311 329 329 342 336 345 347 360 16 24 21 20 20 29 26 32 31 29 27 31 29 28 29 331 27 23 28 26 322 258 247 267 271 278
162 287 46 5 350 284 286 271 240 206 212 212 215 226 239 244 252 296 329 346 356 354 356 7 5 14 23 12 17 15 13 19 24 20 21 25 26 28 358 344 353 357 353 355 345 321 301 307 312
122 255 209 190 167 209 298 269 227 205 202 218 231 233 237 229 232 227 277 347 349 352 345 1 5 9 4 3 4 5 5 7 8 6 7 7 4 3 355 349 341 340 338 330 326 314 312 312 307
173 193 173 142 256 234 201 266 290 206 200 212 228 234 239 237 231 211 198 205 218 254 289 306 323 334 342 347 353 357 356 356 356 356 351 350 352 350 344 336 328 324 324 318 317 316 313 309 305
Height
1518 1519 1520 1523 1535 1538 1540 1529 1523 1524 1526 1528 1528 1529 1535 1535 1538 1548 1543 1542 1541 1541 1539 1540 1540 1540 1540 1541 1541 1542 1542 1543 1543 1544 1544 1544 1544 1545 1545 1545 1545 1545 1546 1546 1547 1547 1548 1548 1548
1519 1520 1521 1523 1541 1550 1544 1528 1534 1530 1529 1528 1529 1531 1533 1539 1539 1541 1542 1542 1541 1540 1539 1540 1540 1540 1540 1540 1541 1542 1542 1543 1543 1544 1544 1544 1544 1544 1544 1545 1545 1545 1546 1546 1547 1547 1548 1548 1548
1519 1520 1523 1528 1540 1544 1542 1532 1531 1529 1529 1529 1532 1533 1536 1541 1541 1541 1542 1541 1541 1540 1539 1539 1539 1540 1541 1540 1541 1542 1542 1542 1543 1543 1543 1544 1544 1544 1544 1544 1544 1545 1545 1546 1546 1547 1548 1547 1548
1520 1523 1525 1533 1534 1532 1532 1531 1529 1530 1531 1532 1533 1536 1539 1541 1541 1542 1541 1541 1540 1540 1540 1539 1539 1539 1540 1541 1541 1541 1542 1542 1542 1542 1542 1542 1543 1543 1543 1543 1544 1544 1545 1545 1546 1546 1547 1547 1547
1520 1522 1531 1534 1530 1534 1530 1528 1530 1532 1533 1534 1535 1539 1540 1541 1542 1542 1541 1541 1540 1539 1540 1539 1538 1538 1539 1539 1540 1540 1540 1541 1541 1541 1541 1541 1541 1541 1541 1541 1542 1542 1543 1544 1545 1545 1546 1546 1547
1521 1521 1536 1537 1535 1532 1532 1531 1531 1532 1534 1536 1537 1539 1543 1543 1543 1541 1540 1540 1540 1540 1539 1539 1539 1538 1538 1538 1538 1539 1539 1539 1540 1540 1540 1540 1540 1540 1540 1540 1540 1541 1541 1542 1543 1543 1544 1545 1545
1520 1525 1530 1529 1536 1534 1535 1534 1535 1536 1535 1538 1539 1540 1543 1544 1542 1541 1540 1540 1539 1539 1539 1539 1538 1538 1538 1537 1537 1537 1537 1538 1538 1538 1538 1538 1538 1538 1538 1538 1538 1539 1539 1540 1540 1541 1542 1543 1544
1521 1523 1523 1528 1536 1541 1536 1535 1537 1537 1539 1539 1540 1542 1544 1543 1542 1540 1540 1539 1538 1538 1538 1538 1538 1537 1536 1536 1536 1535 1535 1535 1535 1536 1536 1536 1535 1535 1536 1536 1536 1536 1537 1537 1538 1538 1540 1541 1541
1521 1529 1535 1537 1534 1538 1536 1537 1539 1539 1540 1539 1540 1541 1543 1541 1539 1538 1537 1537 1537 1537 1535 1535 1536 1536 1535 1535 1534 1533 1533 1533 1533 1532 1533 1533 1533 1533 1533 1533 1533 1533 1534 1534 1535 1535 1536 1537 1538
1522 1535 1535 1535 1534 1537 1537 1539 1540 1541 1540 1539 1539 1540 1539 1538 1537 1536 1535 1535 1534 1534 1533 1532 1531 1531 1531 1531 1530 1530 1530 1529 1529 1529 1529 1529 1529 1530 1529 1529 1530 1530 1530 1531 1531 1531 1532 1533 1534
1526 1534 1534 1537 1535 1535 1538 1540 1540 1541 1540 1540 1540 1538 1537 1537 1536 1535 1535 1535 1533 1532 1531 1530 1529 1528 1527 1526 1526 1526 1526 1526 1525 1525 1525 1525 1525 1525 1525 1525 1525 1526 1527 1527 1527 1528 1528 1529 1531
1532 1532 1533 1537 1537 1537 1539 1540 1539 1539 1537 1537 1538 1537 1537 1536 1535 1534 1533 1533 1532 1530 1528 1526 1525 1524 1522 1521 1521 1520 1520 1521 1521 1521 1520 1520 1520 1521 1521 1521 1521 1521 1522 1523 1524 1523 1524 1525 1527
1531 1534 1535 1537 1538 1540 1541 1539 1539 1535 1534 1535 1536 1536 1535 1534 1534 1533 1532 1530 1527 1525 1524 1523 1521 1520 1518 1517 1515 1515 1514 1514 1515 1515 1515 1515 1515 1515 1516 1517 1517 1517 1517 1517 1518 1518 1519 1520 1522
1531 1534 1536 1537 1538 1540 1540 1538 1537 1533 1532 1532 1533 1534 1534 1534 1532 1530 1528 1527 1525 1523 1521 1519 1517 1515 1513 1512 1510 1509 1508 1507 1508 1508 1508 1509 1509 1510 1511 1512 1511 1512 1511 1512 1513 1514 1515 1516 1517
1533 1536 1537 1538 1538 1539 1538 1535 1535 1530 1531 1531 1531 1531 1532 1532 1530 1528 1526 1524 1521 1520 1517 1514 1511 1509 1508 1506 1504 1504 1502 1501 1500 1501 1502 1503 1502 1503 1504 1505 1506 1507 1507 1507 1507 1509 1510 1510 1511
1533 1537 1543 1538 1538 1538 1538 1538 1528 1528 1530 1530 1529 1529 1530 1528 1527 1525 1523 1521 1518 1514 1512 1510 1507 1504 1502 1500 1498 1496 1496 1495 1495 1495 1495 1496 1497 1496 1498 1499 1500 1501 1502 1501 1502 1502 1504 1505 1505
1537 1545 1541 1541 1538 1539 1539 1538 1529 1527 1528 1527 1527 1527 1526 1526 1525 1522 1520 1518 1515 1512 1508 1505 1501 1498 1496 1493 1491 1490 1489 1488 1489 1489 1488 1489 1490 1491 1491 1492 1493 1495 1495 1495 1497 1496 1498 1499 1500
1546 1541 1537 1538 1539 1538 1539 1537 1525 1526 1526 1524 1524 1524 1523 1522 1521 1520 1518 1515 1511 1508 1505 1500 1497 1493 1491 1488 1486 1484 1482 1482 1482 1482 1483 1483 1483 1484 1485 1486 1487 1488 1489 1489 1491 1492 1492 1494 1494
1538 1540 1543 1541 1538 1540 1538 1535 1522 1522 1521 1521 1521 1521 1519 1519 1519 1517 1514 1510 1507 1504 1500 1496 1492 1488 1485 1482 1481 1479 1477 1477 1477 1476 1476 1477 1476 1477 1477 1479 1480 1481 1481 1483 1486 1487 1488 1489 1491
1541 1543 1550 1542 1538 1541 1534 1527 1518 1513 1513 1516 1518 1517 1517 1517 1515 1512 1510 1507 1504 1501 1497 1493 1489 1485 1482 1478 1476 1475 1473 1473 1472 1471 1470 1471 1471 1470 1471 1471 1470 1473 1474 1475 1478 1480 1481 1483 1485
1546 1547 1548 1550 1543 1537 1535 1529 1514 1511 1512 1514 1516 1517 1516 1515 1512 1510 1507 1504 1502 1498 1494 1490 1486 1481 1478 1474 1472 1471 1470 1470 1469 1467 1465 1463 1462 1463 1465 1466 1465 1467 1469 1470 1473 1474 1474 1477 1480
1545 1545 1545 1547 1553 1561 1542 1555 1521 1512 1512 1514 1516 1516 1514 1513 1511 1509 1505 1502 1499 1496 1493 1489 1485 1480 1476 1472 1469 1468 1466 1466 1465 1463 1461 1458 1455 1455 1455 1457 1461 1457 1462 1464 1468 1469 1470 1473 1472
1547 1545 1546 1545 1552 1561 1546 1560 1523 1512 1515 1515 1515 1513 1512 1511 1509 1506 1502 1500 1498 1495 1492 1489 1486 1481 1475 1471 1470 1468 1466 1464 1462 1461 1459 1455 1453 1451 1451 1452 1452 1444 1450 1456 1457 1461 1463 1465 1467
1544 1545 1546 1544 1547 1560 1548 1549 1526 1515 1508 1512 1511 1510 1510 1508 1506 1504 1502 1500 1498 1497 1494 1489 1485 1481 1477 1474 1471 1469 1465 1463 1461 1459 1458 1453 1451 1450 1450 1450 1449 1448 1440 1447 1453 1453 1456 1459 1461
1546 1554 1580 1560 1563 1557 1539 1557 1520 1505 1504 1505 1506 1507 1507 1504 1503 1502 1502 1500 1497 1496 1493 1489 1485 1483 1480 1476 1473 1471 1466 1464 1460 1458 1452 1451 1450 1447 1445 1445 1446 1442 1436 1438 1445 1449 1453 1456 1458
1546 1549 1577 1568 1575 1560 1550 1548 1514 1500 1503 1504 1504 1504 1503 1503 1503 1502 1500 1499 1497 1494 1491 1488 1486 1484 1483 1480 1475 1472 1467 1465 1459 1456 1456 1452 1448 1444 1443 1443 1446 1443 1445 1439 1445 1448 1449 1452 1454
1543 1552 1546 1566 1565 1574 1554 1524 1504 1501 1502 1502 1502 1502 1502 1502 1502 1500 1499 1497 1495 1493 1490 1489 1488 1486 1485 1482 1479 1476 1472 1468 1464 1459 1457 1453 1449 1447 1449 1452 1452 1450 1443 1448 1446 1447 1449 1448 1449
1544 1546 1558 1562 1576 1560 1549 1525 1512 1503 1502 1501 1500 1499 1498 1499 1499 1498 1497 1496 1494 1493 1491 1489 1489 1488 1486 1484 1481 1479 1475 1471 1468 1466 1462 1459 1456 1450 1452 1452 1451 1450 1451 1449 1447 1446 1445 1444 1444
1548 1548 1546 1549 1553 1559 1548 1533 1499 1497 1497 1497 1495 1496 1496 1496 1495 1495 1495 1494 1493 1492 1491 1491 1490 1488 1486 1484 1482 1480 1476 1473 1470 1467 1464 1461 1458 1456 1454 1452 1451 1450 1448 1445 1444 1444 1442 1441 1444
1534 1538 1540 1555 1542 1544 1543 1524 1491 1490 1490 1491 1492 1492 1493 1492 1490 1490 1491 1492 1491 1490 1489 1489 1488 1487 1485 1483 1480 1477 1474 1472 1469 1466 1464 1461 1459 1457 1455 1453 1450 1448 1445 1443 1442 1441 1440 1440 1440